Regional Weather Roundup
Issued by NWS

Home | Current Version | Previous Version | Graphics & Text | Print | Product List | Glossary On
Versions: 1 2 3 4 5 6 7 8 9 10 11 12 13 14 15 16 17 18 19 20 21 22 23 24 25 26 27 28 29 30 31 32 33 34 35 36 37 38 39 40 41 42 43 44 45 46 47 48 49 50
000
ASUS43 KOAX 170010
RWRNE

WEATHER ROUNDUP FOR NEBRASKA
NATIONAL WEATHER SERVICE OMAHA NE
600 PM CST MON JAN 16 2017

NOTES: SATELLITE DATA IS BEING USED TO AUGMENT CLOUD COVER ABOVE
       12000 FEET.
       "FAIR" INDICATES FEW OR NO CLOUDS BELOW 12,000 FEET WITH NO
       SIGNIFICANT WEATHER AND/OR OBSTRUCTIONS TO VISIBILITY.

  * THESE STATIONS DO NOT REPORT WEATHER SUCH AS RAIN...SNOW OR FOG.

NEZ001>004-019>022-054>056-170100-
NEBRASKA PANHANDLE

CITY           SKY/WX    TMP DP  RH WIND       PRES   REMARKS
SCOTTSBLUFF    CLOUDY    34  19  54 NW7       30.09R WCI  28
6HR MIN TEMP:  34; 6HR MAX TEMP:  43;

ALLIANCE       CLOUDY    30  16  56 NW6       30.06R WCI  24
6HR MIN TEMP:  30; 6HR MAX TEMP:  39;

CHADRON        CLEAR     27  18  69 S6        30.10R WCI  20
6HR MIN TEMP:  27; 6HR MAX TEMP:  34;

KIMBALL        CLOUDY    35  22  60 NW3       30.08R
SIDNEY         CLOUDY    35  24  64 N10       30.06R WCI  27
6HR MIN TEMP:  33; 6HR MAX TEMP:  37;

$$

NEZ057>060-069>072-079>082-170100-
SOUTHWEST NEBRASKA

CITY           SKY/WX    TMP DP  RH WIND       PRES   REMARKS
NORTH PLATTE   CLOUDY    35  28  75 NW8       30.02R WCI  29
6HR MIN TEMP:  34; 6HR MAX TEMP:  39; 6HR PCP: TRACE;

IMPERIAL       CLOUDY    34  28  79 NW13      30.04R WCI  25
6HR MIN TEMP:  33; 6HR MAX TEMP:  35; 6HR PCP: TRACE;

LEXINGTON      CLOUDY    34  30  85 NW9       29.99R WCI  27
MCCOOK         CLOUDY    35  32  88 NW8       30.02R WCI  29
6HR MIN TEMP:  34; 6HR MAX TEMP:  35; 6HR PCP:  0.06;

OGALLALA       CLOUDY    36  28  73 N12       30.04R WCI  28
$$

NEZ005>010-023>029-035>040-094-170100-
NORTH CENTRAL NEBRASKA

CITY           SKY/WX    TMP DP  RH WIND       PRES   REMARKS
VALENTINE      CLOUDY    27  15  61 NW8       30.06R WCI  19
6HR MIN TEMP:  27; 6HR MAX TEMP:  37;

AINSWORTH      CLOUDY    28  19  70 NW10      30.03R WCI  18
BROKEN BOW     CLOUDY    34  29  82 N17       29.98R WCI  23
6HR MIN TEMP:  32; 6HR MAX TEMP:  34; 6HR PCP:  0.02;

O`NEILL        CLOUDY    31  26  83 NW10      30.00S WCI  22
ORD            CLOUDY    33  28  81 N14       29.98R WCI  23
6HR MIN TEMP:  32; 6HR MAX TEMP:  33; 6HR PCP:  0.05;

THEDFORD       CLOUDY    34  22  62 NW8       30.03R WCI  27
$$

NEZ041-046>049-061>064-073>077-083>087-170100-
SOUTH CENTRAL NEBRASKA

CITY           SKY/WX    TMP DP  RH WIND       PRES   REMARKS
GRAND ISLAND   CLOUDY   N/A N/A N/A N9        29.96R HAZE
AURORA         CLOUDY    32  32  99 N5        29.95R WCI  27
HASTINGS       CLOUDY    33  31  92 N14       29.96R WCI  23
6HR MIN TEMP:  32; 6HR MAX TEMP:  33; 6HR PCP:  0.06;

HEBRON         CLOUDY    32  32  98 N3        29.93R
HOLDREGE       CLOUDY    33  31  93 N5        29.97R WCI  28
KEARNEY *      CLOUDY    32  28  86 CALM      29.97R
YORK           CLOUDY    32  32 100 CALM      29.94R
$$

NEZ011>018-030>034-042>045-170100-
NORTHEAST NEBRASKA

CITY           SKY/WX    TMP DP  RH WIND       PRES   REMARKS
NORFOLK        MIX PCPN  31  29  92 N12G17    29.96R WCI  22
6HR MIN TEMP:  31; 6HR MAX TEMP:  32; 6HR PCP:  0.26;

ALBION         MIX PCPN  32  30  92 N6        29.97R WCI  26
BLAIR          CLOUDY    33  32  98 N7        29.90R FOG     WCI  27
FREMONT        CLOUDY    32  32 100 N5        29.93R FOG     WCI  28
TEKAMAH        LGT RAIN  33  31  92 N12       29.94R FOG     WCI  24
6HR MIN TEMP:  32; 6HR MAX TEMP:  33; 6HR PCP:  0.14;

WAYNE          CLOUDY    31  30  96 N5        29.96R WCI  27
$$

NEZ050>053-065>068-078-088>093-170100-
SOUTHEAST NEBRASKA

CITY           SKY/WX    TMP DP  RH WIND       PRES   REMARKS
LINCOLN        CLOUDY    33  32  96 N14       29.93R WCI  23
6HR MIN TEMP:  33; 6HR MAX TEMP:  33; 6HR PCP:  0.02;

OMAHA EPPLEY   DRIZZLE   34  30  85 N10       29.92R FOG     WCI  26
6HR MIN TEMP:  33; 6HR MAX TEMP:  35; 6HR PCP:  0.05;

BEATRICE       CLOUDY    33  33 100 N7        29.92R WCI  27
FALLS CITY     CLOUDY    34  34 100 NW9       29.88R FOG     WCI  27
6HR MIN TEMP:  35; 6HR MAX TEMP:  37; 6HR PCP:  0.02;

NEBRASKA CITY  CLOUDY    33  33 100 N10       29.89R FOG     WCI  25
PLATTSMOUTH    CLOUDY    33  32  94 N6        29.90R FOG     WCI  28
$$

NEZ044-045-051>053-067-170100-
OMAHA AREA

CITY           SKY/WX    TMP DP  RH WIND       PRES   REMARKS
OMAHA EPPLEY   DRIZZLE   34  30  85 N10       29.92R FOG     WCI  26
6HR MIN TEMP:  33; 6HR MAX TEMP:  35; 6HR PCP:  0.05;

BLAIR          CLOUDY    33  32  98 N7        29.90R FOG     WCI  27
FREMONT        CLOUDY    32  32 100 N5        29.93R FOG     WCI  28
MILLARD        CLOUDY    35  34  94 CALM      29.92R
OFFUTT AFB     CLOUDY    34  34 100 N7        29.91R FOG     WCI  28
PLATTSMOUTH    CLOUDY    33  32  94 N6        29.90R FOG     WCI  28
WAHOO          MIX PCPN  32  32  99 N14       29.93R WCI  22
$$




USA.gov is the U.S. government's official web portal to all federal, state and local government web resources and services.